owner,sensor,date,latitude,longitude,air_temperature,qcFlag 
DISL,ioos:station:DISL:MHPA:1,2009-04-01T00:00:00Z,30.6671,-87.9365,19.17,1111122 
DISL,ioos:station:DISL:MHPA:1,2009-04-01T00:30:00Z,30.6671,-87.9365,19.34,1111122 
DISL,ioos:station:DISL:MHPA:1,2009-04-01T01:00:00Z,30.6671,-87.9365,19.58,1111122 
DISL,ioos:station:DISL:MHPA:1,2009-04-01T01:30:00Z,30.6671,-87.9365,19.51,1111122 
DISL,ioos:station:DISL:MHPA:1,2009-04-01T02:00:00Z,30.6671,-87.9365,19.33,1111122 
DISL,ioos:station:DISL:MHPA:1,2009-04-01T02:30:00Z,30.6671,-87.9365,19.12,1111122 
DISL,ioos:station:DISL:MHPA:1,2009-04-01T03:00:00Z,30.6671,-87.9365,19.44,1111122 
DISL,ioos:station:DISL:MHPA:1,2009-04-01T03:30:00Z,30.6671,-87.9365,19.48,1111122 
DISL,ioos:station:DISL:MHPA:1,2009-04-01T04:00:00Z,30.6671,-87.9365,19.64,1111122 
DISL,ioos:station:DISL:MHPA:1,2009-04-01T04:30:00Z,30.6671,-87.9365,19.54,1111122 
DISL,ioos:station:DISL:MHPA:1,2009-04-01T05:00:00Z,30.6671,-87.9365,19.86,1111122 
DISL,ioos:station:DISL:MHPA:1,2009-04-01T05:30:00Z,30.6671,-87.9365,19.12,1111122 
DISL,ioos:station:DISL:MHPA:1,2009-04-01T06:00:00Z,30.6671,-87.9365,18.97,1111122 
DISL,ioos:station:DISL:MHPA:1,2009-04-01T06:30:00Z,30.6671,-87.9365,18.91,1111122 
DISL,ioos:station:DISL:MHPA:1,2009-04-01T07:00:00Z,30.6671,-87.9365,19.01,1111122 
DISL,ioos:station:DISL:MHPA:1,2009-04-01T07:30:00Z,30.6671,-87.9365,18.88,1111122 
DISL,ioos:station:DISL:MHPA:1,2009-04-01T08:00:00Z,30.6671,-87.9365,18.91,1111122 
DISL,ioos:station:DISL:MHPA:1,2009-04-01T08:30:00Z,30.6671,-87.9365,18.82,1111122 
DISL,ioos:station:DISL:MHPA:1,2009-04-01T09:00:00Z,30.6671,-87.9365,18.85,1111122 
DISL,ioos:station:DISL:MHPA:1,2009-04-01T09:30:00Z,30.6671,-87.9365,18.65,1111122 
DISL,ioos:station:DISL:MHPA:1,2009-04-01T10:00:00Z,30.6671,-87.9365,18.4,1111122 
DISL,ioos:station:DISL:MHPA:1,2009-04-01T10:30:00Z,30.6671,-87.9365,17.78,1111122 
DISL,ioos:station:DISL:MHPA:1,2009-04-01T11:00:00Z,30.6671,-87.9365,17.14,1111122 
DISL,ioos:station:DISL:MHPA:1,2009-04-01T11:30:00Z,30.6671,-87.9365,16.63,1111122 
DISL,ioos:station:DISL:MHPA:1,2009-04-01T12:00:00Z,30.6671,-87.9365,16.04,1111122 
DISL,ioos:station:DISL:MHPA:1,2009-04-01T12:30:00Z,30.6671,-87.9365,15.82,1111122 
DISL,ioos:station:DISL:MHPA:1,2009-04-01T13:00:00Z,30.6671,-87.9365,16.02,1111122 
DISL,ioos:station:DISL:MHPA:1,2009-04-01T13:30:00Z,30.6671,-87.9365,16.39,1111122 
DISL,ioos:station:DISL:MHPA:1,2009-04-01T14:00:00Z,30.6671,-87.9365,16.47,1111122 
DISL,ioos:station:DISL:MHPA:1,2009-04-01T14:30:00Z,30.6671,-87.9365,16.7,1111122 
DISL,ioos:station:DISL:MHPA:1,2009-04-01T15:00:00Z,30.6671,-87.9365,17.18,1111122 
DISL,ioos:station:DISL:MHPA:1,2009-04-01T15:30:00Z,30.6671,-87.9365,17.65,1111122 
DISL,ioos:station:DISL:MHPA:1,2009-04-01T16:00:00Z,30.6671,-87.9365,18.31,1111122 
DISL,ioos:station:DISL:MHPA:1,2009-04-01T16:30:00Z,30.6671,-87.9365,19.3,1111122 
DISL,ioos:station:DISL:MHPA:1,2009-04-01T17:00:00Z,30.6671,-87.9365,19.71,1111122 
DISL,ioos:station:DISL:MHPA:1,2009-04-01T17:30:00Z,30.6671,-87.9365,19.36,1111122 
DISL,ioos:station:DISL:MHPA:1,2009-04-01T18:00:00Z,30.6671,-87.9365,19.86,1111122 
DISL,ioos:station:DISL:MHPA:1,2009-04-01T18:30:00Z,30.6671,-87.9365,19.91,1111122 
DISL,ioos:station:DISL:MHPA:1,2009-04-01T19:00:00Z,30.6671,-87.9365,20.06,1111122 
DISL,ioos:station:DISL:MHPA:1,2009-04-01T19:30:00Z,30.6671,-87.9365,20.73,1111122 
DISL,ioos:station:DISL:MHPA:1,2009-04-01T20:00:00Z,30.6671,-87.9365,21.38,1111122 
DISL,ioos:station:DISL:MHPA:1,2009-04-01T20:30:00Z,30.6671,-87.9365,21.89,1111122 
DISL,ioos:station:DISL:MHPA:1,2009-04-01T21:00:00Z,30.6671,-87.9365,21.85,1111122 
DISL,ioos:station:DISL:MHPA:1,2009-04-01T21:30:00Z,30.6671,-87.9365,21.74,1111122 
DISL,ioos:station:DISL:MHPA:1,2009-04-01T22:00:00Z,30.6671,-87.9365,21.66,1111122 
DISL,ioos:station:DISL:MHPA:1,2009-04-01T22:30:00Z,30.6671,-87.9365,21.62,1111122 
DISL,ioos:station:DISL:MHPA:1,2009-04-01T23:00:00Z,30.6671,-87.9365,21.32,1111122 
DISL,ioos:station:DISL:MHPA:1,2009-04-01T23:30:00Z,30.6671,-87.9365,21.26,1111122 
DISL,ioos:station:DISL:MHPA:1,2009-04-02T00:00:00Z,30.6671,-87.9365,21.09,1111122 
DISL,ioos:station:DISL:MHPA:1,2009-04-02T00:30:00Z,30.6671,-87.9365,20.95,1111122 
DISL,ioos:station:DISL:MHPA:1,2009-04-02T01:00:00Z,30.6671,-87.9365,20.8,1111122 
DISL,ioos:station:DISL:MHPA:1,2009-04-02T01:30:00Z,30.6671,-87.9365,20.64,1111122 
DISL,ioos:station:DISL:MHPA:1,2009-04-02T02:00:00Z,30.6671,-87.9365,20.53,1111122 
DISL,ioos:station:DISL:MHPA:1,2009-04-02T02:30:00Z,30.6671,-87.9365,20.31,1111122 
DISL,ioos:station:DISL:MHPA:1,2009-04-02T03:00:00Z,30.6671,-87.9365,20.45,1111122 
DISL,ioos:station:DISL:MHPA:1,2009-04-02T03:30:00Z,30.6671,-87.9365,20.22,1111122 
DISL,ioos:station:DISL:MHPA:1,2009-04-02T04:00:00Z,30.6671,-87.9365,20.4,1111122 
DISL,ioos:station:DISL:MHPA:1,2009-04-02T04:30:00Z,30.6671,-87.9365,20.56,1111122 
DISL,ioos:station:DISL:MHPA:1,2009-04-02T05:00:00Z,30.6671,-87.9365,20.68,1111122 
DISL,ioos:station:DISL:MHPA:1,2009-04-02T05:30:00Z,30.6671,-87.9365,20.96,1111122 
DISL,ioos:station:DISL:MHPA:1,2009-04-02T06:00:00Z,30.6671,-87.9365,20.35,1111122 
DISL,ioos:station:DISL:MHPA:1,2009-04-02T06:30:00Z,30.6671,-87.9365,19.35,1111122 
DISL,ioos:station:DISL:MHPA:1,2009-04-02T07:00:00Z,30.6671,-87.9365,19.6,1111122 
DISL,ioos:station:DISL:MHPA:1,2009-04-02T07:30:00Z,30.6671,-87.9365,19.61,1111122 
DISL,ioos:station:DISL:MHPA:1,2009-04-02T08:00:00Z,30.6671,-87.9365,19.88,1111122 
DISL,ioos:station:DISL:MHPA:1,2009-04-02T08:30:00Z,30.6671,-87.9365,20.15,1111122 
DISL,ioos:station:DISL:MHPA:1,2009-04-02T09:00:00Z,30.6671,-87.9365,20.38,1111122 
DISL,ioos:station:DISL:MHPA:1,2009-04-02T09:30:00Z,30.6671,-87.9365,20.5,1111122 
DISL,ioos:station:DISL:MHPA:1,2009-04-02T10:00:00Z,30.6671,-87.9365,20.51,1111122 
DISL,ioos:station:DISL:MHPA:1,2009-04-02T10:30:00Z,30.6671,-87.9365,20.43,1111122 
DISL,ioos:station:DISL:MHPA:1,2009-04-02T11:00:00Z,30.6671,-87.9365,20.21,1111122 
DISL,ioos:station:DISL:MHPA:1,2009-04-02T11:30:00Z,30.6671,-87.9365,20.82,1111122 
DISL,ioos:station:DISL:MHPA:1,2009-04-02T12:00:00Z,30.6671,-87.9365,20.57,1111122 
DISL,ioos:station:DISL:MHPA:1,2009-04-02T12:30:00Z,30.6671,-87.9365,19.94,1111122 
DISL,ioos:station:DISL:MHPA:1,2009-04-02T13:00:00Z,30.6671,-87.9365,20.53,1111122 
DISL,ioos:station:DISL:MHPA:1,2009-04-02T13:30:00Z,30.6671,-87.9365,20.61,1111122 
DISL,ioos:station:DISL:MHPA:1,2009-04-02T14:00:00Z,30.6671,-87.9365,18.86,1111122 
DISL,ioos:station:DISL:MHPA:1,2009-04-02T14:30:00Z,30.6671,-87.9365,19.13,1111122 
DISL,ioos:station:DISL:MHPA:1,2009-04-02T15:00:00Z,30.6671,-87.9365,18.67,1111122 
DISL,ioos:station:DISL:MHPA:1,2009-04-02T15:30:00Z,30.6671,-87.9365,18.87,1111122 
DISL,ioos:station:DISL:MHPA:1,2009-04-02T16:00:00Z,30.6671,-87.9365,19.04,1111122 
DISL,ioos:station:DISL:MHPA:1,2009-04-02T16:30:00Z,30.6671,-87.9365,19.43,1111122 
DISL,ioos:station:DISL:MHPA:1,2009-04-02T17:00:00Z,30.6671,-87.9365,20.14,1111122 
DISL,ioos:station:DISL:MHPA:1,2009-04-02T17:30:00Z,30.6671,-87.9365,18.5,1111122 
DISL,ioos:station:DISL:MHPA:1,2009-04-02T18:00:00Z,30.6671,-87.9365,18.69,1111122 
DISL,ioos:station:DISL:MHPA:1,2009-04-02T18:30:00Z,30.6671,-87.9365,19.96,1111122 
DISL,ioos:station:DISL:MHPA:1,2009-04-02T19:00:00Z,30.6671,-87.9365,20.44,1111122 
DISL,ioos:station:DISL:MHPA:1,2009-04-02T19:30:00Z,30.6671,-87.9365,19.95,1111122 
DISL,ioos:station:DISL:MHPA:1,2009-04-02T20:00:00Z,30.6671,-87.9365,19.42,1111122 
DISL,ioos:station:DISL:MHPA:1,2009-04-02T20:30:00Z,30.6671,-87.9365,19.18,1111122 
DISL,ioos:station:DISL:MHPA:1,2009-04-02T21:00:00Z,30.6671,-87.9365,19.79,1111122 
DISL,ioos:station:DISL:MHPA:1,2009-04-02T21:30:00Z,30.6671,-87.9365,21.28,1111122 
DISL,ioos:station:DISL:MHPA:1,2009-04-02T22:00:00Z,30.6671,-87.9365,20.37,1111122 
DISL,ioos:station:DISL:MHPA:1,2009-04-02T22:30:00Z,30.6671,-87.9365,19.74,1111122 
DISL,ioos:station:DISL:MHPA:1,2009-04-02T23:00:00Z,30.6671,-87.9365,19.39,1111122 
DISL,ioos:station:DISL:MHPA:1,2009-04-02T23:30:00Z,30.6671,-87.9365,19.11,1111122 
DISL,ioos:station:DISL:MHPA:1,2009-04-03T00:00:00Z,30.6671,-87.9365,19.36,1111122 
DISL,ioos:station:DISL:MHPA:1,2009-04-03T00:30:00Z,30.6671,-87.9365,19.32,1111122 
DISL,ioos:station:DISL:MHPA:1,2009-04-03T01:00:00Z,30.6671,-87.9365,19.63,1111122 
DISL,ioos:station:DISL:MHPA:1,2009-04-03T01:30:00Z,30.6671,-87.9365,19.83,1111122 
DISL,ioos:station:DISL:MHPA:1,2009-04-03T02:00:00Z,30.6671,-87.9365,19.82,1111122 
DISL,ioos:station:DISL:MHPA:1,2009-04-03T02:30:00Z,30.6671,-87.9365,19.75,1111122 
DISL,ioos:station:DISL:MHPA:1,2009-04-03T03:00:00Z,30.6671,-87.9365,19.44,1111122 
DISL,ioos:station:DISL:MHPA:1,2009-04-03T03:30:00Z,30.6671,-87.9365,19.46,1111122 
DISL,ioos:station:DISL:MHPA:1,2009-04-03T04:00:00Z,30.6671,-87.9365,19.37,1111122 
DISL,ioos:station:DISL:MHPA:1,2009-04-03T04:30:00Z,30.6671,-87.9365,19.61,1111122 
DISL,ioos:station:DISL:MHPA:1,2009-04-03T05:00:00Z,30.6671,-87.9365,19.46,1111122 
DISL,ioos:station:DISL:MHPA:1,2009-04-03T05:30:00Z,30.6671,-87.9365,19.2,1111122 
DISL,ioos:station:DISL:MHPA:1,2009-04-03T06:00:00Z,30.6671,-87.9365,18.54,1111122 
DISL,ioos:station:DISL:MHPA:1,2009-04-03T06:30:00Z,30.6671,-87.9365,17.82,1111122 
DISL,ioos:station:DISL:MHPA:1,2009-04-03T07:00:00Z,30.6671,-87.9365,17.27,1111122 
DISL,ioos:station:DISL:MHPA:1,2009-04-03T07:30:00Z,30.6671,-87.9365,16.66,1111122 
DISL,ioos:station:DISL:MHPA:1,2009-04-03T08:00:00Z,30.6671,-87.9365,16.22,1111122 
DISL,ioos:station:DISL:MHPA:1,2009-04-03T08:30:00Z,30.6671,-87.9365,15.69,1111122 
DISL,ioos:station:DISL:MHPA:1,2009-04-03T09:00:00Z,30.6671,-87.9365,15.46,1111122 
DISL,ioos:station:DISL:MHPA:1,2009-04-03T09:30:00Z,30.6671,-87.9365,15.12,1111122 
DISL,ioos:station:DISL:MHPA:1,2009-04-03T10:00:00Z,30.6671,-87.9365,14.89,1111122 
DISL,ioos:station:DISL:MHPA:1,2009-04-03T10:30:00Z,30.6671,-87.9365,14.49,1111122 
DISL,ioos:station:DISL:MHPA:1,2009-04-03T11:00:00Z,30.6671,-87.9365,14.28,1111122 
DISL,ioos:station:DISL:MHPA:1,2009-04-03T11:30:00Z,30.6671,-87.9365,14.08,1111122 
DISL,ioos:station:DISL:MHPA:1,2009-04-03T12:00:00Z,30.6671,-87.9365,13.95,1111122 
DISL,ioos:station:DISL:MHPA:1,2009-04-03T12:30:00Z,30.6671,-87.9365,14.29,1111122 
DISL,ioos:station:DISL:MHPA:1,2009-04-03T13:00:00Z,30.6671,-87.9365,14.41,1111122 
DISL,ioos:station:DISL:MHPA:1,2009-04-03T13:30:00Z,30.6671,-87.9365,14.91,1111122 
DISL,ioos:station:DISL:MHPA:1,2009-04-03T14:00:00Z,30.6671,-87.9365,15.15,1111122 
DISL,ioos:station:DISL:MHPA:1,2009-04-03T14:30:00Z,30.6671,-87.9365,15.86,1111122 
DISL,ioos:station:DISL:MHPA:1,2009-04-03T15:00:00Z,30.6671,-87.9365,16.67,1111122 
DISL,ioos:station:DISL:MHPA:1,2009-04-03T15:30:00Z,30.6671,-87.9365,17.01,1111122 
DISL,ioos:station:DISL:MHPA:1,2009-04-03T16:00:00Z,30.6671,-87.9365,17.5,1111122 
DISL,ioos:station:DISL:MHPA:1,2009-04-03T16:30:00Z,30.6671,-87.9365,17.93,1111122 
DISL,ioos:station:DISL:MHPA:1,2009-04-03T17:00:00Z,30.6671,-87.9365,18.18,1111122 
DISL,ioos:station:DISL:MHPA:1,2009-04-03T17:30:00Z,30.6671,-87.9365,18.79,1111122 
DISL,ioos:station:DISL:MHPA:1,2009-04-03T18:00:00Z,30.6671,-87.9365,19.45,1111122 
DISL,ioos:station:DISL:MHPA:1,2009-04-03T18:30:00Z,30.6671,-87.9365,19.82,1111122 
DISL,ioos:station:DISL:MHPA:1,2009-04-03T19:00:00Z,30.6671,-87.9365,20.63,1111122 
DISL,ioos:station:DISL:MHPA:1,2009-04-03T19:30:00Z,30.6671,-87.9365,20.36,1111122 
DISL,ioos:station:DISL:MHPA:1,2009-04-03T20:00:00Z,30.6671,-87.9365,20.96,1111122 
DISL,ioos:station:DISL:MHPA:1,2009-04-03T20:30:00Z,30.6671,-87.9365,21.19,1111122 
DISL,ioos:station:DISL:MHPA:1,2009-04-03T21:00:00Z,30.6671,-87.9365,21.42,1111122 
DISL,ioos:station:DISL:MHPA:1,2009-04-03T21:30:00Z,30.6671,-87.9365,21.87,1111122 
DISL,ioos:station:DISL:MHPA:1,2009-04-03T22:00:00Z,30.6671,-87.9365,21.99,1111122 
DISL,ioos:station:DISL:MHPA:1,2009-04-03T22:30:00Z,30.6671,-87.9365,19.3,1111122 
DISL,ioos:station:DISL:MHPA:1,2009-04-03T23:00:00Z,30.6671,-87.9365,19.43,1111122 
DISL,ioos:station:DISL:MHPA:1,2009-04-03T23:30:00Z,30.6671,-87.9365,18.85,1111122 
DISL,ioos:station:DISL:MHPA:1,2009-04-04T00:00:00Z,30.6671,-87.9365,18.65,1111122 
DISL,ioos:station:DISL:MHPA:1,2009-04-04T00:30:00Z,30.6671,-87.9365,18.59,1111122 
DISL,ioos:station:DISL:MHPA:1,2009-04-04T01:00:00Z,30.6671,-87.9365,18.45,1111122 
DISL,ioos:station:DISL:MHPA:1,2009-04-04T01:30:00Z,30.6671,-87.9365,18.38,1111122 
DISL,ioos:station:DISL:MHPA:1,2009-04-04T02:00:00Z,30.6671,-87.9365,18.13,1111122 
DISL,ioos:station:DISL:MHPA:1,2009-04-04T02:30:00Z,30.6671,-87.9365,17.9,1111122 
DISL,ioos:station:DISL:MHPA:1,2009-04-04T03:00:00Z,30.6671,-87.9365,16.92,1111122 
DISL,ioos:station:DISL:MHPA:1,2009-04-04T03:30:00Z,30.6671,-87.9365,16.15,1111122 
DISL,ioos:station:DISL:MHPA:1,2009-04-04T04:00:00Z,30.6671,-87.9365,15.73,1111122 
DISL,ioos:station:DISL:MHPA:1,2009-04-04T04:30:00Z,30.6671,-87.9365,15.54,1111122 
DISL,ioos:station:DISL:MHPA:1,2009-04-04T05:00:00Z,30.6671,-87.9365,14.91,1111122 
DISL,ioos:station:DISL:MHPA:1,2009-04-04T05:30:00Z,30.6671,-87.9365,15.06,1111122 
DISL,ioos:station:DISL:MHPA:1,2009-04-04T06:00:00Z,30.6671,-87.9365,15.29,1111122 
DISL,ioos:station:DISL:MHPA:1,2009-04-04T06:30:00Z,30.6671,-87.9365,15.12,1111122 
DISL,ioos:station:DISL:MHPA:1,2009-04-04T07:00:00Z,30.6671,-87.9365,15.17,1111122 
DISL,ioos:station:DISL:MHPA:1,2009-04-04T07:30:00Z,30.6671,-87.9365,14.59,1111122 
DISL,ioos:station:DISL:MHPA:1,2009-04-04T08:00:00Z,30.6671,-87.9365,14.16,1111122 
DISL,ioos:station:DISL:MHPA:1,2009-04-04T08:30:00Z,30.6671,-87.9365,13.95,1111122 
DISL,ioos:station:DISL:MHPA:1,2009-04-04T09:00:00Z,30.6671,-87.9365,13.66,1111122 
DISL,ioos:station:DISL:MHPA:1,2009-04-04T09:30:00Z,30.6671,-87.9365,13.79,1111122 
DISL,ioos:station:DISL:MHPA:1,2009-04-04T10:00:00Z,30.6671,-87.9365,14.05,1111122 
DISL,ioos:station:DISL:MHPA:1,2009-04-04T10:30:00Z,30.6671,-87.9365,13.74,1111122 
DISL,ioos:station:DISL:MHPA:1,2009-04-04T11:00:00Z,30.6671,-87.9365,13.73,1111122 
DISL,ioos:station:DISL:MHPA:1,2009-04-04T11:30:00Z,30.6671,-87.9365,13.39,1111122 
DISL,ioos:station:DISL:MHPA:1,2009-04-04T12:00:00Z,30.6671,-87.9365,13.09,1111122 
DISL,ioos:station:DISL:MHPA:1,2009-04-04T12:30:00Z,30.6671,-87.9365,13.84,1111122 
DISL,ioos:station:DISL:MHPA:1,2009-04-04T13:00:00Z,30.6671,-87.9365,14.67,1111122 
DISL,ioos:station:DISL:MHPA:1,2009-04-04T13:30:00Z,30.6671,-87.9365,14.98,1111122 
DISL,ioos:station:DISL:MHPA:1,2009-04-04T14:00:00Z,30.6671,-87.9365,15.81,1111122 
DISL,ioos:station:DISL:MHPA:1,2009-04-04T14:30:00Z,30.6671,-87.9365,16.85,1111122 
DISL,ioos:station:DISL:MHPA:1,2009-04-04T15:00:00Z,30.6671,-87.9365,17.75,1111122 
DISL,ioos:station:DISL:MHPA:1,2009-04-04T15:30:00Z,30.6671,-87.9365,18.38,1111122 
DISL,ioos:station:DISL:MHPA:1,2009-04-04T16:00:00Z,30.6671,-87.9365,19.02,1111122 
DISL,ioos:station:DISL:MHPA:1,2009-04-04T16:30:00Z,30.6671,-87.9365,19.83,1111122 
DISL,ioos:station:DISL:MHPA:1,2009-04-04T17:00:00Z,30.6671,-87.9365,20.26,1111122 
DISL,ioos:station:DISL:MHPA:1,2009-04-04T17:30:00Z,30.6671,-87.9365,20.52,1111122 
DISL,ioos:station:DISL:MHPA:1,2009-04-04T18:00:00Z,30.6671,-87.9365,20.81,1111122 
DISL,ioos:station:DISL:MHPA:1,2009-04-04T18:30:00Z,30.6671,-87.9365,21.21,1111122 
DISL,ioos:station:DISL:MHPA:1,2009-04-04T19:00:00Z,30.6671,-87.9365,19.75,1111122 
DISL,ioos:station:DISL:MHPA:1,2009-04-04T19:30:00Z,30.6671,-87.9365,19.53,1111122 
DISL,ioos:station:DISL:MHPA:1,2009-04-04T20:00:00Z,30.6671,-87.9365,21.51,1111122 
DISL,ioos:station:DISL:MHPA:1,2009-04-04T20:30:00Z,30.6671,-87.9365,21.59,1111122 
DISL,ioos:station:DISL:MHPA:1,2009-04-04T21:00:00Z,30.6671,-87.9365,21.88,1111122 
DISL,ioos:station:DISL:MHPA:1,2009-04-04T21:30:00Z,30.6671,-87.9365,20.04,1111122 
DISL,ioos:station:DISL:MHPA:1,2009-04-04T22:00:00Z,30.6671,-87.9365,20.02,1111122 
DISL,ioos:station:DISL:MHPA:1,2009-04-04T22:30:00Z,30.6671,-87.9365,21.97,1111122 
DISL,ioos:station:DISL:MHPA:1,2009-04-04T23:00:00Z,30.6671,-87.9365,21.29,1111122 
DISL,ioos:station:DISL:MHPA:1,2009-04-04T23:30:00Z,30.6671,-87.9365,20.56,1111122 
DISL,ioos:station:DISL:MHPA:1,2009-04-05T00:00:00Z,30.6671,-87.9365,19.84,1111122 
DISL,ioos:station:DISL:MHPA:1,2009-04-05T00:30:00Z,30.6671,-87.9365,19.26,1111122 
DISL,ioos:station:DISL:MHPA:1,2009-04-05T01:00:00Z,30.6671,-87.9365,18.81,1111122 
DISL,ioos:station:DISL:MHPA:1,2009-04-05T01:30:00Z,30.6671,-87.9365,18.4,1111122 
DISL,ioos:station:DISL:MHPA:1,2009-04-05T02:00:00Z,30.6671,-87.9365,18.05,1111122 
DISL,ioos:station:DISL:MHPA:1,2009-04-05T02:30:00Z,30.6671,-87.9365,17.76,1111122 
DISL,ioos:station:DISL:MHPA:1,2009-04-05T03:00:00Z,30.6671,-87.9365,17.85,1111122 
DISL,ioos:station:DISL:MHPA:1,2009-04-05T03:30:00Z,30.6671,-87.9365,17.93,1111122 
DISL,ioos:station:DISL:MHPA:1,2009-04-05T04:00:00Z,30.6671,-87.9365,18.13,1111122 
DISL,ioos:station:DISL:MHPA:1,2009-04-05T04:30:00Z,30.6671,-87.9365,18.06,1111122 
DISL,ioos:station:DISL:MHPA:1,2009-04-05T05:00:00Z,30.6671,-87.9365,18.27,1111122 
DISL,ioos:station:DISL:MHPA:1,2009-04-05T05:30:00Z,30.6671,-87.9365,18.09,1111122 
DISL,ioos:station:DISL:MHPA:1,2009-04-05T06:00:00Z,30.6671,-87.9365,18.34,1111122 
DISL,ioos:station:DISL:MHPA:1,2009-04-05T06:30:00Z,30.6671,-87.9365,18.26,1111122 
DISL,ioos:station:DISL:MHPA:1,2009-04-05T07:00:00Z,30.6671,-87.9365,18.76,1111122 
DISL,ioos:station:DISL:MHPA:1,2009-04-05T07:30:00Z,30.6671,-87.9365,18.95,1111122 
DISL,ioos:station:DISL:MHPA:1,2009-04-05T08:00:00Z,30.6671,-87.9365,19.36,1111122 
DISL,ioos:station:DISL:MHPA:1,2009-04-05T08:30:00Z,30.6671,-87.9365,19.37,1111122 
DISL,ioos:station:DISL:MHPA:1,2009-04-05T09:00:00Z,30.6671,-87.9365,19.82,1111122 
DISL,ioos:station:DISL:MHPA:1,2009-04-05T09:30:00Z,30.6671,-87.9365,20.07,1111122 
DISL,ioos:station:DISL:MHPA:1,2009-04-05T10:00:00Z,30.6671,-87.9365,20.44,1111122 
DISL,ioos:station:DISL:MHPA:1,2009-04-05T10:30:00Z,30.6671,-87.9365,20.63,1111122 
DISL,ioos:station:DISL:MHPA:1,2009-04-05T11:00:00Z,30.6671,-87.9365,20.62,1111122 
DISL,ioos:station:DISL:MHPA:1,2009-04-05T11:30:00Z,30.6671,-87.9365,20.53,1111122 
DISL,ioos:station:DISL:MHPA:1,2009-04-05T12:00:00Z,30.6671,-87.9365,20.54,1111122 
DISL,ioos:station:DISL:MHPA:1,2009-04-05T12:30:00Z,30.6671,-87.9365,20.39,1111122 
DISL,ioos:station:DISL:MHPA:1,2009-04-05T13:00:00Z,30.6671,-87.9365,20.9,1111122 
DISL,ioos:station:DISL:MHPA:1,2009-04-05T13:30:00Z,30.6671,-87.9365,21.25,1111122 
DISL,ioos:station:DISL:MHPA:1,2009-04-05T14:00:00Z,30.6671,-87.9365,21.57,1111122 
DISL,ioos:station:DISL:MHPA:1,2009-04-05T14:30:00Z,30.6671,-87.9365,21.33,1111122 
DISL,ioos:station:DISL:MHPA:1,2009-04-05T15:00:00Z,30.6671,-87.9365,21.52,1111122 
DISL,ioos:station:DISL:MHPA:1,2009-04-05T15:30:00Z,30.6671,-87.9365,21.81,1111122 
DISL,ioos:station:DISL:MHPA:1,2009-04-05T16:00:00Z,30.6671,-87.9365,21.73,1111122 
DISL,ioos:station:DISL:MHPA:1,2009-04-05T16:30:00Z,30.6671,-87.9365,21.5,1111122 
DISL,ioos:station:DISL:MHPA:1,2009-04-05T17:00:00Z,30.6671,-87.9365,21.07,1111122 
DISL,ioos:station:DISL:MHPA:1,2009-04-05T17:30:00Z,30.6671,-87.9365,21.12,1111122 
DISL,ioos:station:DISL:MHPA:1,2009-04-05T18:00:00Z,30.6671,-87.9365,21.06,1111122 
DISL,ioos:station:DISL:MHPA:1,2009-04-05T18:30:00Z,30.6671,-87.9365,20.91,1111122 
DISL,ioos:station:DISL:MHPA:1,2009-04-05T19:00:00Z,30.6671,-87.9365,20.98,1111122 
DISL,ioos:station:DISL:MHPA:1,2009-04-05T19:30:00Z,30.6671,-87.9365,20.75,1111122 
DISL,ioos:station:DISL:MHPA:1,2009-04-05T20:00:00Z,30.6671,-87.9365,21.02,1111122 
DISL,ioos:station:DISL:MHPA:1,2009-04-05T20:30:00Z,30.6671,-87.9365,21.27,1111122 
DISL,ioos:station:DISL:MHPA:1,2009-04-05T21:00:00Z,30.6671,-87.9365,21.38,1111122 
DISL,ioos:station:DISL:MHPA:1,2009-04-05T21:30:00Z,30.6671,-87.9365,21.12,1111122 
DISL,ioos:station:DISL:MHPA:1,2009-04-05T22:00:00Z,30.6671,-87.9365,21.01,1111122 
DISL,ioos:station:DISL:MHPA:1,2009-04-05T22:30:00Z,30.6671,-87.9365,20.89,1111122 
DISL,ioos:station:DISL:MHPA:1,2009-04-05T23:00:00Z,30.6671,-87.9365,20.87,1111122 
DISL,ioos:station:DISL:MHPA:1,2009-04-05T23:30:00Z,30.6671,-87.9365,20.68,1111122 
DISL,ioos:station:DISL:MHPA:1,2009-04-06T00:00:00Z,30.6671,-87.9365,20.81,1111122 
DISL,ioos:station:DISL:MHPA:1,2009-04-06T00:30:00Z,30.6671,-87.9365,20.81,1111122 
DISL,ioos:station:DISL:MHPA:1,2009-04-06T01:00:00Z,30.6671,-87.9365,20.67,1111122 
DISL,ioos:station:DISL:MHPA:1,2009-04-06T01:30:00Z,30.6671,-87.9365,20.74,1111122 
DISL,ioos:station:DISL:MHPA:1,2009-04-06T02:00:00Z,30.6671,-87.9365,20.81,1111122 
DISL,ioos:station:DISL:MHPA:1,2009-04-06T02:30:00Z,30.6671,-87.9365,21.24,1111122 
DISL,ioos:station:DISL:MHPA:1,2009-04-06T03:00:00Z,30.6671,-87.9365,21.32,1111122 
DISL,ioos:station:DISL:MHPA:1,2009-04-06T03:30:00Z,30.6671,-87.9365,20.65,1111122 
DISL,ioos:station:DISL:MHPA:1,2009-04-06T04:00:00Z,30.6671,-87.9365,19.8,1111122 
DISL,ioos:station:DISL:MHPA:1,2009-04-06T04:30:00Z,30.6671,-87.9365,19.77,1111122 
DISL,ioos:station:DISL:MHPA:1,2009-04-06T05:00:00Z,30.6671,-87.9365,20.39,1111122 
DISL,ioos:station:DISL:MHPA:1,2009-04-06T05:30:00Z,30.6671,-87.9365,21.52,1111122 
DISL,ioos:station:DISL:MHPA:1,2009-04-06T06:00:00Z,30.6671,-87.9365,20.58,1111122 
DISL,ioos:station:DISL:MHPA:1,2009-04-06T06:30:00Z,30.6671,-87.9365,19.6,1111122 
DISL,ioos:station:DISL:MHPA:1,2009-04-06T07:00:00Z,30.6671,-87.9365,18.93,1111122 
DISL,ioos:station:DISL:MHPA:1,2009-04-06T07:30:00Z,30.6671,-87.9365,18.16,1111122 
DISL,ioos:station:DISL:MHPA:1,2009-04-06T08:00:00Z,30.6671,-87.9365,17.37,1111122 
DISL,ioos:station:DISL:MHPA:1,2009-04-06T08:30:00Z,30.6671,-87.9365,17.12,1111122 
DISL,ioos:station:DISL:MHPA:1,2009-04-06T09:00:00Z,30.6671,-87.9365,15.17,1111122 
DISL,ioos:station:DISL:MHPA:1,2009-04-06T09:30:00Z,30.6671,-87.9365,13.74,1111122 
DISL,ioos:station:DISL:MHPA:1,2009-04-06T10:00:00Z,30.6671,-87.9365,12.21,1111122 
DISL,ioos:station:DISL:MHPA:1,2009-04-06T10:30:00Z,30.6671,-87.9365,10.9,1111122 
DISL,ioos:station:DISL:MHPA:1,2009-04-06T11:00:00Z,30.6671,-87.9365,10.25,1111122 
DISL,ioos:station:DISL:MHPA:1,2009-04-06T11:30:00Z,30.6671,-87.9365,9.57,1111122 
DISL,ioos:station:DISL:MHPA:1,2009-04-06T12:00:00Z,30.6671,-87.9365,9.27,1111122 
DISL,ioos:station:DISL:MHPA:1,2009-04-06T12:30:00Z,30.6671,-87.9365,9.39,1111122 
DISL,ioos:station:DISL:MHPA:1,2009-04-06T13:00:00Z,30.6671,-87.9365,9.35,1111122 
DISL,ioos:station:DISL:MHPA:1,2009-04-06T13:30:00Z,30.6671,-87.9365,9.64,1111122 
DISL,ioos:station:DISL:MHPA:1,2009-04-06T14:00:00Z,30.6671,-87.9365,10.23,1111122 
DISL,ioos:station:DISL:MHPA:1,2009-04-06T14:30:00Z,30.6671,-87.9365,10.43,1111122 
DISL,ioos:station:DISL:MHPA:1,2009-04-06T15:00:00Z,30.6671,-87.9365,11.01,1111122 
DISL,ioos:station:DISL:MHPA:1,2009-04-06T15:30:00Z,30.6671,-87.9365,11.42,1111122 
DISL,ioos:station:DISL:MHPA:1,2009-04-06T16:00:00Z,30.6671,-87.9365,11.8,1111122 
DISL,ioos:station:DISL:MHPA:1,2009-04-06T16:30:00Z,30.6671,-87.9365,11.83,1111122 
DISL,ioos:station:DISL:MHPA:1,2009-04-06T17:00:00Z,30.6671,-87.9365,12.88,1111122 
DISL,ioos:station:DISL:MHPA:1,2009-04-06T17:30:00Z,30.6671,-87.9365,13.19,1111122 
DISL,ioos:station:DISL:MHPA:1,2009-04-06T18:00:00Z,30.6671,-87.9365,13.71,1111122 
DISL,ioos:station:DISL:MHPA:1,2009-04-06T18:30:00Z,30.6671,-87.9365,14.25,1111122 
DISL,ioos:station:DISL:MHPA:1,2009-04-06T19:00:00Z,30.6671,-87.9365,14.78,1111122 
DISL,ioos:station:DISL:MHPA:1,2009-04-06T19:30:00Z,30.6671,-87.9365,15.12,1111122 
DISL,ioos:station:DISL:MHPA:1,2009-04-06T20:00:00Z,30.6671,-87.9365,15.2,1111122 
DISL,ioos:station:DISL:MHPA:1,2009-04-06T20:30:00Z,30.6671,-87.9365,15.09,1111122 
DISL,ioos:station:DISL:MHPA:1,2009-04-06T21:00:00Z,30.6671,-87.9365,15.7,1111122 
DISL,ioos:station:DISL:MHPA:1,2009-04-06T21:30:00Z,30.6671,-87.9365,15.7,1111122 
DISL,ioos:station:DISL:MHPA:1,2009-04-06T22:00:00Z,30.6671,-87.9365,15.44,1111122 
DISL,ioos:station:DISL:MHPA:1,2009-04-06T22:30:00Z,30.6671,-87.9365,15.47,1111122 
DISL,ioos:station:DISL:MHPA:1,2009-04-06T23:00:00Z,30.6671,-87.9365,15.19,1111122 
DISL,ioos:station:DISL:MHPA:1,2009-04-06T23:30:00Z,30.6671,-87.9365,14.72,1111122 